NOAA 17 DEB

Satellite information

Favourite Embed

Satellite Type and Status

DEBRISIN ORBIT

Key statistics

Satellite NOAA 17 DEB at a glance.

Uptime

8352

Days in orbit

Revolutions

≈ 14.6

Per day

Orbit

SSO

Sun Synchronous Orbit

Inclination

98.7

Latest

Satellite identification and parameters

Extended collection of information and parameters for NOAA 17 DEB.

Object identification

Identified? True

Debris? True

Object name: NOAA 17 DEB

International designator: 2002-032CA

Object number (NORAD): 48741

Object ID (CCSDS): 48741

Country: UNITED STATES OF AMERICA (US)

Current information (Y/N): Y

RCS size: SMALL

Orbital parameters

Period: 98.545 minutes

Inclination: 98.6803 deg

SMA: 7067.248 km

Apoapsis: 694.799 km

Periapsis: 683.426 km

RAAN: 97.3958 deg

Eccentricy: 0.0008046

Argument of periapsis: 18.5289 deg

Mean anomaly: 341.6202 deg

Mean motion: 14.61259342 rev/day

Mean motion (dot): 0.00021162 rev/day2

B* drag term: 0.0042858 1/REarth

Two-line elements (TLE)

Creation date: May 6, 2025, 3:54 a.m.

Reference frame: TEME

Reference center: EARTH

Epoch: May 5, 2025, 8:27 a.m. UTC

TLE line 0: 0 NOAA 17 DEB

TLE line 1: 1 48741U 02032CA 25125.35254638 .00021162 00000-0 42858-2 0 9993

TLE line 2: 2 48741 98.6803 97.3958 0008046 18.5289 341.6202 14.61259342215421

Live tracking on map

Real-time ground track for satellite NOAA 17 DEB.

In-orbit conjunctions

A list of the most updated potential collisions computed for object NOAA 17 DEB.

Target Orbit TCA Probability of collision Miss distance Type
SCOUT G-1 DEB LEO 2024-11-11 23:27:52 0.0007601854 150.0 (m) DEBRIS
SEASAT 1 SSO 2024-09-18 07:33:31 0.0001883798 601.0 (m) PAYLOAD
SL-16 DEB LEO 2024-07-05 06:45:03 0.0001061751 246.0 (m) DEBRIS

Associated space launch

NOAA M carried weather imagers and microwave and infrared sounders, as well as a SARSAT search-and-rescue package. It had an on-orbit mass of 1475 kg.

NOAA 17 DEB was lifted into orbit during the mission ‘Titan II SLV | NOAA 17’, on board a Titan II SLV space rocket.

The launch took place on June 24, 2002, 6:23 p.m. from Space Launch Complex 4W.

For more information about the launch, click the button.

Launch to space Titan II SLV | NOAA 17
Titan II SLV | NOAA 17

Agency: N/A

Status: Launch Successful

Launch date: June 24, 2002, 6:23 p.m. UTC

Rocket: Titan II SLV

Launch pad: Space Launch Complex 4W

Location: Vandenberg SFB, CA, USA

...

Latest news about this satellite

There are no fresh news available about this satellite. Check back as we update our databases every day.


Newsletter sign-up

Weekly statistics, charts and insights to help you stay on top of the space industry.